San Diego Montgomery, CA

2:55 AM PDT on April 26, 2017 (GMT -0700)
Montgomery

Weather History for KMYF - December, 2012

Change the Weather History Date:

Thursday, December 6, 2012

  Actual Average Record
Temperature  
Mean Temperature 60 °F 56 °F  
Max Temperature 66 °F 66 °F 79 °F (2015)
Min Temperature 55 °F 46 °F 36 °F (2011)
Degree Days  
Heating Degree Days 4 9  
Month to date heating degree days 53  
Since 1 July heating degree days 265  
Cooling Degree Days 0 0  
Month to date cooling degree days 0  
Year to date cooling degree days 842  
Growing Degree Days 10 (Base 50)    
Moisture  
Dew Point 54 °F    
Average Humidity 84    
Maximum Humidity 94    
Minimum Humidity 66    
Precipitation  
Precipitation 0.00 in 0.03 in 0.22 in (1998)
Month to date precipitation 0.17  
Year to date precipitation 11.05  
Sea Level Pressure  
Sea Level Pressure 29.94 in    
Wind  
Wind Speed 2 mph (NNW)    
Max Wind Speed 8 mph    
Max Gust Speed -    
Visibility 8 miles    
Events      
T = Trace of Precipitation, MM = Missing Value Source: NWS Daily Summary

Daily Weather History Graph

Daily Weather History Graph

Search for Another Location

Airport or City:

Trip Planner

Search our weather history database for the weather conditions in past years. The results will help you decide how hot, cold, wet, or windy it might be!

Date:

Astronomy

Dec. 06, 2012 Rise Set
Actual Time 6:37 AM PST 4:42 PM PST
Civil Twilight 6:10 AM PST 5:09 PM PST
Nautical Twilight 5:39 AM PST 5:39 PM PST
Astronomical Twilight 5:09 AM PST 6:09 PM PST
Moon No Moon Rise 11:51 AM PST (12/6)
Length of Visible Light 10h 58m
Length of Day
10h 04m
Waning Gibbous, 48% of the Moon is Illuminated
Dec 6
Waning Gibbous
Dec 13
New
Dec 19
First Quarter
Dec 28
Full
Jan 4
Last Quarter

Hourly Weather History & Observations

Time (PST) Temp. Dew Point Humidity Pressure Visibility Wind Dir Wind Speed Gust Speed Precip Events Conditions
12:53 AM 57.9 °F 53.1 °F 84% 30.02 in 9.0 mi Calm Calm - N/A   Overcast
1:53 AM 59.0 °F 53.1 °F 81% 30.01 in 8.0 mi Calm Calm - N/A   Overcast
2:53 AM 57.9 °F 53.1 °F 84% 29.99 in 7.0 mi Calm Calm - N/A   Overcast
3:53 AM 57.0 °F 53.1 °F 87% 29.98 in 7.0 mi NE 4.6 mph - N/A   Overcast
4:53 AM 57.0 °F 54.0 °F 89% 29.97 in 6.0 mi Calm Calm - N/A   Overcast
5:53 AM 57.9 °F 54.0 °F 87% 29.97 in 7.0 mi ESE 3.5 mph - N/A   Overcast
6:53 AM 57.9 °F 54.0 °F 87% 29.98 in 7.0 mi ESE 3.5 mph - N/A   Overcast
7:53 AM 59.0 °F 54.0 °F 83% 29.99 in 6.0 mi Calm Calm - N/A   Haze
8:53 AM 60.1 °F 54.0 °F 80% 29.99 in 6.0 mi East 4.6 mph - N/A   Haze
9:53 AM 61.0 °F 54.0 °F 78% 29.99 in 10.0 mi Calm Calm - N/A   Overcast
10:53 AM 63.0 °F 55.0 °F 75% 29.97 in 10.0 mi North 4.6 mph - N/A   Overcast
11:53 AM 64.0 °F 55.0 °F 73% 29.94 in 10.0 mi NNW 6.9 mph - N/A   Overcast
12:53 PM 64.9 °F 55.0 °F 70% 29.90 in 10.0 mi West 4.6 mph - N/A   Mostly Cloudy
1:53 PM 66.9 °F 55.0 °F 66% 29.87 in 10.0 mi Variable 3.5 mph - N/A   Scattered Clouds
2:53 PM 66.9 °F 55.0 °F 66% 29.88 in 10.0 mi WNW 8.1 mph - N/A   Scattered Clouds
3:53 PM 64.0 °F 55.0 °F 73% 29.88 in 10.0 mi WNW 8.1 mph - N/A   Scattered Clouds
4:53 PM 61.0 °F 55.0 °F 81% 29.88 in 10.0 mi WNW 4.6 mph - N/A   Clear
5:53 PM 60.1 °F 55.0 °F 83% 29.89 in 10.0 mi WNW 5.8 mph - N/A   Clear
6:53 PM 60.1 °F 55.0 °F 83% 29.91 in 10.0 mi NW 5.8 mph - N/A   Scattered Clouds
7:30 PM 59.0 °F 55.4 °F 88% 29.93 in 7.0 mi NNW 4.6 mph - N/A   Mostly Cloudy
7:53 PM 59.0 °F 55.9 °F 90% 29.93 in 9.0 mi North 3.5 mph - N/A   Scattered Clouds
8:13 PM 59.0 °F 55.4 °F 88% 29.93 in 9.0 mi North 4.6 mph - N/A   Scattered Clouds
8:21 PM 59.0 °F 55.4 °F 88% 29.94 in 8.0 mi North 4.6 mph - N/A   Mostly Cloudy
8:53 PM 57.9 °F 55.9 °F 93% 29.93 in 7.0 mi Calm Calm - N/A   Partly Cloudy
9:53 PM 57.0 °F 54.0 °F 89% 29.93 in 6.0 mi NNW 3.5 mph - N/A   Mostly Cloudy
10:13 PM 57.2 °F 55.4 °F 94% 29.94 in 5.0 mi North 3.5 mph - N/A   Overcast
10:53 PM 57.0 °F 55.0 °F 93% 29.93 in 4.0 mi Calm Calm - N/A   Scattered Clouds
11:09 PM 55.4 °F 53.6 °F 94% 29.93 in 4.0 mi Calm Calm - N/A   Mostly Cloudy
11:41 PM 57.2 °F 53.6 °F 88% 29.94 in 4.0 mi Calm Calm - N/A   Scattered Clouds
11:53 PM 55.9 °F 54.0 °F 93% 29.93 in 4.0 mi Calm Calm - N/A   Mostly Cloudy